Location: El Para�so
(10.4896°N, 66.9245°W)
Time: 04:59:19
(UTC+00:00)

CZ-2C R/B - Pass Details

Date: 08 August 2020
Orbit: 705 x 907 km, 98.1° (Epoch: 21 September)

Event Time Altitude Azimuth Distance (km) Brightness Sun altitude
Exits shadow 23:12:21 - 145° (SE) 3,260 5.8 -6.4°
Reaches altitude 10° 23:15:00 10° 133° (SE) 2,313 4.9 -7.0°
Maximum altitude 23:19:12 27° 77° (ENE) 1,421 3.9 -8.0°
Drops below altitude 10° 23:23:15 10° 20° (NNE) 2,221 5.4 -8.9°
Sets 23:25:47 0° 8° (N) 3,120 6.3 -9.5°
